Location: Trebic
(49.2170°N, 15.8830°E)
Time: 21:10:06
(UTC+02:00)

Transit 2A Rocket - Pass Details

Date: 28 July 2019
Orbit: 590 x 913 km, 66.7° (Epoch: 16 August)

Event Time Altitude Azimuth Distance (km) Brightness Sun altitude
Rises 07:37:17 0° 317° (NW) 3,309 7.9 19.8°
Reaches altitude 10° 07:41:26 10° 346° (NNW) 2,292 7.5 20.5°
Maximum altitude 07:43:32 12° 10° (N) 2,091 7.6 20.8°
Drops below altitude 10° 07:45:34 10° 34° (NE) 2,202 8.1 21.2°
Sets 07:49:21 0° 65° (ENE) 3,037 9.3 21.8°
